TimePDT,TemperatureF,Dew PointF,Humidity,Sea Level PressureIn,VisibilityMPH,Wind Direction,Wind SpeedMPH,Gust SpeedMPH,PrecipitationIn,Events,Conditions,WindDirDegrees,DateUTC
12:15 AM,46.4,42.8,87,30.18,10.0,Calm,Calm,-,N/A,,Overcast,0,2012-10-25 07:15:00
12:53 AM,46.0,43.0,89,30.21,10.0,South,3.5,-,0.00,,Overcast,170,2012-10-25 07:53:00
1:34 AM,44.6,42.8,93,30.21,10.0,Calm,Calm,-,N/A,,Overcast,0,2012-10-25 08:34:00
1:53 AM,45.0,42.1,90,30.23,10.0,Calm,Calm,-,N/A,,Overcast,0,2012-10-25 08:53:00
2:08 AM,44.6,42.8,93,30.22,10.0,Calm,Calm,-,N/A,,Overcast,0,2012-10-25 09:08:00
2:45 AM,44.6,42.8,93,30.23,10.0,Calm,Calm,-,N/A,,Overcast,0,2012-10-25 09:45:00
2:53 AM,45.0,42.1,90,30.25,10.0,Calm,Calm,-,N/A,,Overcast,0,2012-10-25 09:53:00
3:19 AM,44.6,42.8,93,30.25,10.0,Calm,Calm,-,N/A,,Overcast,0,2012-10-25 10:19:00
3:53 AM,45.0,43.0,93,30.27,10.0,Calm,Calm,-,N/A,,Overcast,0,2012-10-25 10:53:00
4:53 AM,45.0,43.0,93,30.29,10.0,Calm,Calm,-,N/A,,Overcast,0,2012-10-25 11:53:00
5:53 AM,45.0,43.0,93,30.31,10.0,Calm,Calm,-,N/A,,Overcast,0,2012-10-25 12:53:00
6:53 AM,45.0,43.0,93,30.34,10.0,Calm,Calm,-,N/A,,Overcast,0,2012-10-25 13:53:00
7:31 AM,44.6,42.8,93,30.34,10.0,Calm,Calm,-,N/A,,Overcast,0,2012-10-25 14:31:00
7:53 AM,44.1,42.1,93,30.35,10.0,South,3.5,-,N/A,,Overcast,170,2012-10-25 14:53:00
8:53 AM,45.0,43.0,93,30.38,10.0,Calm,Calm,-,N/A,,Overcast,0,2012-10-25 15:53:00
9:50 AM,46.4,44.6,93,30.38,10.0,Calm,Calm,-,N/A,,Overcast,0,2012-10-25 16:50:00
9:53 AM,46.9,44.1,90,30.40,10.0,Calm,Calm,-,N/A,,Overcast,0,2012-10-25 16:53:00
10:53 AM,48.0,44.1,86,30.42,10.0,Calm,Calm,-,N/A,,Overcast,0,2012-10-25 17:53:00
11:49 AM,48.2,44.6,87,30.41,10.0,SW,3.5,-,N/A,,Overcast,220,2012-10-25 18:49:00
11:53 AM,48.9,44.1,83,30.43,10.0,Calm,Calm,-,N/A,,Overcast,0,2012-10-25 18:53:00
12:02 PM,50.0,44.6,82,30.42,10.0,SSE,3.5,-,N/A,,Mostly Cloudy,160,2012-10-25 19:02:00
12:53 PM,51.1,43.0,74,30.43,10.0,Calm,Calm,-,N/A,,Overcast,0,2012-10-25 19:53:00
1:53 PM,52.0,42.1,69,30.43,10.0,Calm,Calm,-,N/A,,Overcast,0,2012-10-25 20:53:00
2:53 PM,53.1,42.1,66,30.42,10.0,Calm,Calm,-,N/A,,Scattered Clouds,0,2012-10-25 21:53:00
3:53 PM,53.1,42.1,66,30.43,10.0,Calm,Calm,-,N/A,,Overcast,0,2012-10-25 22:53:00
4:53 PM,53.1,41.0,64,30.42,10.0,Calm,Calm,-,0.00,,Mostly Cloudy,0,2012-10-25 23:53:00
5:53 PM,52.0,43.0,71,30.41,10.0,Calm,Calm,-,N/A,,Clear,0,2012-10-26 00:53:00
6:53 PM,48.9,44.1,83,30.40,10.0,Calm,Calm,-,N/A,,Clear,0,2012-10-26 01:53:00
7:53 PM,48.0,45.0,89,30.40,10.0,Calm,Calm,-,N/A,,Clear,0,2012-10-26 02:53:00
8:53 PM,48.2,44.6,87,30.38,10.0,Calm,Calm,-,N/A,,Clear,0,2012-10-26 03:53:00
9:53 PM,46.9,43.0,86,30.38,10.0,South,3.5,-,N/A,,Clear,170,2012-10-26 04:53:00
10:53 PM,46.9,42.1,83,30.36,10.0,Calm,Calm,-,N/A,,Clear,0,2012-10-26 05:53:00
11:53 PM,46.0,41.0,83,30.35,10.0,Calm,Calm,-,N/A,,Clear,0,2012-10-26 06:53:00